Location: Kruen
(47.5000°N, 11.5000°E)
Time: 22:11:11
(UTC+01:00)

ISS - Pass Details

Date: 30 September 2020
Orbit: 417 x 420 km, 51.6° (Epoch: 27 October)

Event Time Altitude Azimuth Distance (km) Brightness Sun altitude
Rises 20:16:58 0° 292° (WNW) 2,368 1.8 -14.7°
Reaches altitude 10° 20:19:06 10° 297° (WNW) 1,503 0.3 -15.0°
Maximum altitude 20:22:26 57° 17° (NNE) 499 -3.5 -15.6°
Enters shadow 20:23:33 36° 78° (ENE) 690 -3.2 -15.7°
